Location: Black Swamp Observatory
(41.3920°N, 84.1250°W)
Time: 00:14:15
(UTC-04:00)

Amateur Radio Satellites - All Passes

Search period start: 26 May 2017 23:44
Search period end: 27 May 2017 23:44
Location: Black Swamp Observatory, 41.3920°N, 84.1250°W

Satellite Date Start Highest point End Downlink Frequencies (MHz)
Time Altitude Azimuth
SPROUT 26 May 23:57:46 23:59:59 14° 64° (ENE) 00:02:11 437.525
VELOX 1 27 May 00:04:17 00:07:13 18° 65° (ENE) 00:10:09 145.980
AIST 2D 27 May 00:08:48 00:11:17 18° 93° (E) 00:13:45 435.315
UNISAT 6 27 May 00:13:52 00:18:17 47° 288° (WNW) 00:22:45 437.425
PRISM 27 May 00:18:18 00:21:52 30° 291° (WNW) 00:25:24 437.425
LO-87 27 May 00:19:58 00:23:18 38° 262° (W) 00:26:39 145.935 - 145.965
FO-29 27 May 00:28:41 00:34:53 52° 289° (WNW) 00:41:50 435.910
Tancredo 1 27 May 00:37:07 00:38:32 12° 2° (N) 00:39:57 437.200
DX 1 27 May 00:39:36 00:42:06 15° 63° (ENE) 00:44:36 434.975-435.025
EO-79 27 May 00:40:20 00:43:41 22° 95° (E) 00:47:02 145.935-145.965
ESTCUBE 1 27 May 00:44:18 00:48:40 47° 261° (W) 00:53:04 437.505/2401.250
YUBILEINY 27 May 00:49:45 00:56:13 24° 80° (E) 01:02:41 435.215
SO-50 27 May 00:49:53 00:53:20 21° 317° (NW) 00:56:46 436.795
ISS 27 May 01:10:33 01:12:26 14° 5° (N) 01:14:19 437.550
TIGRISAT 27 May 01:20:44 01:22:35 12° 298° (WNW) 01:24:26 435.000
NANOSAT C BR1 27 May 01:24:46 01:29:00 64° 101° (ESE) 01:33:13 145.865
POLYITAN 1 27 May 01:29:31 01:33:49 81° 101° (E) 01:38:06 437.675
SPROUT 27 May 01:31:17 01:35:26 54° 260° (W) 01:39:35 437.525
50 SAT 27 May 01:31:35 01:35:02 82° 77° (ENE) 01:38:30 437.505
DUCHIFAT 1 27 May 01:35:18 01:39:34 76° 102° (ESE) 01:43:48 145.980
QB50P2 27 May 01:38:14 01:42:31 74° 285° (WNW) 01:46:45 145.880/145.840
VELOX 1 27 May 01:39:05 01:43:19 45° 261° (W) 01:47:34 145.980
AIST 2D 27 May 01:41:27 01:44:30 26° 289° (WNW) 01:47:31 435.315
BUGSAT 1 27 May 01:52:35 01:56:24 34° 98° (E) 02:00:13 437.445
RS-15 27 May 01:53:24 02:03:42 35° 104° (ESE) 02:14:12 29.354- 29.394
UKube-1 27 May 02:05:09 02:09:27 85° 76° (ENE) 02:13:48 .
Tancredo 1 27 May 02:12:33 02:15:07 23° 23° (NNE) 02:17:40 437.200
DX 1 27 May 02:13:36 02:17:51 52° 259° (W) 02:22:06 434.975-435.025
EO-79 27 May 02:15:42 02:19:28 31° 290° (WNW) 02:23:13 145.935-145.965
Gurwin Techsat 1B 27 May 02:35:55 02:40:03 23° 93° (E) 02:44:09 435.225
YUBILEINY 27 May 02:43:23 02:52:04 72° 280° (W) 03:00:53 435.215
ISS 27 May 02:46:45 02:49:44 30° 25° (NNE) 02:52:40 437.550
ITUPSAT 1 27 May 02:49:16 02:53:01 23° 65° (ENE) 02:56:46 437.325
Oscar 19 27 May 02:55:03 03:00:08 56° 101° (E) 03:05:10 437.125/150
NANOSAT C BR1 27 May 03:02:29 03:04:10 12° 297° (WNW) 03:05:50 145.865
MOZHAYETS 4 27 May 03:02:33 03:05:29 17° 64° (ENE) 03:08:27
DUCHIFAT 1 27 May 03:13:53 03:14:36 10° 299° (WNW) 03:15:19 145.980
BEESAT 27 May 03:21:34 03:26:07 48° 71° (ENE) 03:30:44 436.000
BUGSAT 1 27 May 03:28:31 03:31:31 20° 293° (WNW) 03:34:32 437.445
Tancredo 1 27 May 03:48:02 03:51:01 50° 220° (SW) 03:53:59 437.200
O/OREOS (USA 219) 27 May 03:51:22 03:54:26 18° 100° (E) 03:57:30 437.305
CUBESAT XI-V 27 May 03:52:14 03:52:42 10° 59° (ENE) 03:53:09 437.345
ITAMSAT 1 27 May 03:58:28 04:02:00 18° 92° (E) 04:05:30 435.822/435.867
RS-15 27 May 04:03:07 04:15:15 73° 306° (NW) 04:27:41 29.354- 29.394
AO-7 27 May 04:11:45 04:18:45 29° 95° (E) 04:25:42 .
Gurwin Techsat 1B 27 May 04:15:08 04:20:11 46° 290° (WNW) 04:25:14 435.225
ISS 27 May 04:23:11 04:26:16 38° 222° (SW) 04:29:19 437.550
ITUPSAT 1 27 May 04:26:09 04:30:35 38° 262° (W) 04:35:04 437.325
Oscar 19 27 May 04:35:26 04:39:00 19° 298° (WNW) 04:42:33 437.125/150
MOZHAYETS 4 27 May 04:37:44 04:42:13 51° 260° (W) 04:46:44
PCSat 27 May 04:43:38 04:48:51 45° 54° (NE) 04:54:01 145.827
YUBILEINY 27 May 04:46:12 04:50:39 15° 302° (WNW) 04:55:09 435.215
AO-85 27 May 04:46:47 04:50:17 26° 115° (ESE) 04:53:39 145.980
BEESAT 27 May 05:00:57 05:04:09 18° 268° (W) 05:07:22 436.000
CUBESAT XI-V 27 May 05:24:34 05:29:17 87° 81° (E) 05:34:02 437.345
KKS-1 27 May 05:27:35 05:32:00 84° 76° (ENE) 05:36:27 437.445
O/OREOS (USA 219) 27 May 05:29:03 05:33:28 45° 297° (WNW) 05:37:53 437.305
ITAMSAT 1 27 May 05:36:42 05:41:48 56° 288° (WNW) 05:46:52 435.822/435.867
BEESAT 3 27 May 05:37:30 05:40:53 28° 114° (ESE) 05:44:20 437.485
STARS 27 May 05:57:13 06:01:33 75° 75° (ENE) 06:05:55 437.465
AO-7 27 May 06:03:45 06:11:58 64° 293° (WNW) 06:20:12 .
RS-15 27 May 06:20:06 06:30:26 30° 335° (NNW) 06:40:50 29.354- 29.394
AO-85 27 May 06:26:57 06:30:35 29° 311° (NW) 06:34:06 145.980
PCSat 27 May 06:27:32 06:31:59 26° 252° (WSW) 06:36:25 145.827
XW-2B 27 May 06:39:33 06:40:39 11° 90° (E) 06:41:44 145.730 - 145.750
NUDT-PHONESAT 27 May 06:49:14 06:50:15 11° 90° (E) 06:51:16 437.300
XW-2F 27 May 06:50:45 06:52:59 15° 92° (E) 06:55:13 145.980 - 146.000
XW-2C 27 May 06:52:01 06:54:29 16° 93° (E) 06:56:57 145.795 - 145.815
BEESAT 2 27 May 06:55:17 06:59:13 73° 120° (ESE) 07:03:15 435.950
KAITUO 1B 27 May 06:57:30 06:59:39 14° 92° (E) 07:01:47 145.475/437.950
STRAND 1 27 May 07:00:46 07:04:22 20° 63° (ENE) 07:08:01 437.568
BEESAT 3 27 May 07:14:59 07:18:25 27° 312° (NW) 07:21:55 437.485
LilacSat-2 27 May 07:29:44 07:33:31 49° 99° (E) 07:37:16 437.200
DOVE 4 27 May 07:33:41 07:37:51 84° 282° (WNW) 07:42:09 437.250
CUTE-I 27 May 07:35:30 07:40:38 46° 99° (E) 07:45:44 437.470
SO-50 27 May 07:39:12 07:43:36 49° 53° (NE) 07:47:59 436.795
M-CUBED/EXP-1 PRIME 27 May 07:58:45 08:01:29 17° 62° (ENE) 08:04:07 437.505
AO-7 27 May 07:58:49 08:03:08 15° 314° (NW) 08:07:28 .
XW-2D 27 May 08:03:21 08:07:11 62° 285° (WNW) 08:10:58 145.860 - 145.880
XW-2B 27 May 08:11:23 08:15:08 51° 286° (WNW) 08:18:51 145.730 - 145.750
NUDT-PHONESAT 27 May 08:20:46 08:24:26 49° 286° (WNW) 08:28:05 437.300
XW-2F 27 May 08:23:42 08:27:16 37° 288° (WNW) 08:30:48 145.980 - 146.000
CUBEBUG 2 27 May 08:24:31 08:27:14 15° 91° (E) 08:29:57 437.445
XW-2C 27 May 08:25:16 08:28:47 34° 288° (WNW) 08:32:16 145.795 - 145.815
NO-84 27 May 08:27:59 08:31:27 23° 127° (SE) 08:34:53 435.350 FM
SEEDS 27 May 08:28:27 08:31:32 20° 93° (E) 08:34:36 437.485
KAITUO 1B 27 May 08:30:16 08:33:49 37° 288° (WNW) 08:37:19 145.475/437.950
UWE-3 27 May 08:34:39 08:36:10 11° 89° (E) 08:37:41 435.000/436.395/437.385
BEESAT 2 27 May 08:35:17 08:37:28 14° 319° (NW) 08:39:40 435.950
STRAND 1 27 May 08:38:12 08:43:09 52° 260° (W) 08:48:09 437.568
RS-15 27 May 08:39:04 08:48:34 24° 11° (N) 08:57:51 29.354- 29.394
XW-2A 27 May 08:41:31 08:44:43 34° 98° (E) 08:47:53 145.665 - 145.685
HO-68 27 May 08:56:13 09:03:21 61° 102° (ESE) 09:10:26 435.675
LilacSat-2 27 May 09:05:36 09:07:21 13° 296° (WNW) 09:09:05 437.200
CUTE 1.7 + AOD 2 27 May 09:15:08 09:19:24 77° 284° (WNW) 09:23:38 437.475
CUTE-I 27 May 09:16:11 09:20:22 24° 296° (WNW) 09:24:34 437.470
SO-50 27 May 09:20:34 09:23:40 18° 249° (WSW) 09:26:46 436.795
AAUSAT CUBESAT 2 27 May 09:25:36 09:29:30 39° 98° (E) 09:33:22 437.432
AO-73 27 May 09:30:21 09:34:02 24° 94° (E) 09:37:42 145.935
M-CUBED/EXP-1 PRIME 27 May 09:31:39 09:35:41 42° 255° (WSW) 09:39:28 437.505
PRISM 27 May 09:33:14 09:35:52 17° 65° (ENE) 09:38:31 437.425
UNISAT 6 27 May 09:38:01 09:40:28 15° 63° (ENE) 09:42:55 437.425
ZACube-1 27 May 09:44:20 09:48:33 36° 97° (E) 09:52:47 437.345
CUBEBUG 2 27 May 09:59:37 10:04:06 54° 286° (WNW) 10:08:41 437.445
SEEDS 27 May 10:03:29 10:07:18 34° 289° (WNW) 10:11:05 437.485
NO-84 27 May 10:04:31 10:08:50 56° 323° (NW) 10:13:01 435.350 FM
UWE-3 27 May 10:08:28 10:13:03 71° 285° (WNW) 10:17:41 435.000/436.395/437.385
XW-2A 27 May 10:15:23 10:17:09 13° 293° (WNW) 10:18:54 145.665 - 145.685
Oscar 11 27 May 10:38:25 10:42:47 82° 283° (WNW) 10:47:07 .
TIGRISAT 27 May 10:40:30 10:44:42 63° 74° (ENE) 10:49:01 435.000
FO-29 27 May 10:41:49 10:46:57 71° 73° (ENE) 10:52:16 435.910
HO-68 27 May 10:44:43 10:50:36 28° 300° (WNW) 10:56:26 435.675
RS-15 27 May 10:53:22 11:05:12 49° 43° (NE) 11:16:26 29.354- 29.394
YUBILEINY 27 May 11:00:44 11:03:07 11° 54° (NE) 11:05:30 435.215
AAUSAT CUBESAT 2 27 May 11:01:55 11:04:38 17° 294° (WNW) 11:07:20 437.432
EO-88 27 May 11:05:54 11:09:21 37° 98° (E) 11:12:46 145.990 - 145.960
AO-73 27 May 11:06:11 11:10:16 34° 290° (WNW) 11:14:23 145.935
PRISM 27 May 11:06:54 11:10:49 42° 261° (W) 11:14:45 437.425
UNISAT 6 27 May 11:12:33 11:16:43 51° 260° (W) 11:20:59 437.425
DELFI C3 27 May 11:13:04 11:17:00 68° 101° (E) 11:20:53 145.870
ZACube-1 27 May 11:21:03 11:24:36 23° 293° (WNW) 11:28:10 437.345
EO-79 27 May 11:33:19 11:36:05 17° 65° (ENE) 11:38:52 145.935-145.965
NO-84 27 May 11:44:18 11:47:10 17° 341° (NNW) 11:49:56 435.350 FM
LO-87 27 May 11:47:39 11:49:43 15° 93° (E) 11:51:48 145.935 - 145.965
AIST 2D 27 May 12:14:56 12:18:27 78° 259° (W) 12:22:00 435.315
NANOSAT C BR1 27 May 12:16:36 12:20:35 46° 72° (ENE) 12:24:36 145.865
TIGRISAT 27 May 12:20:40 12:21:51 11° 271° (W) 12:23:02 435.000
POLYITAN 1 27 May 12:21:45 12:25:52 59° 74° (ENE) 12:30:01 437.675
DUCHIFAT 1 27 May 12:26:48 12:30:50 54° 74° (ENE) 12:34:56 145.980
QB50P2 27 May 12:30:24 12:34:35 81° 76° (ENE) 12:38:49 145.880/145.840
FO-29 27 May 12:30:37 12:32:45 12° 272° (W) 12:34:55 435.910
ESTCUBE 1 27 May 12:36:37 12:40:45 35° 97° (E) 12:44:50 437.505/2401.250
Oscar 19 27 May 12:37:02 12:38:29 11° 57° (ENE) 12:39:55 437.125/150
EO-88 27 May 12:40:37 12:42:42 15° 294° (WNW) 12:44:47 145.990 - 145.960
BUGSAT 1 27 May 12:42:39 12:45:52 24° 68° (ENE) 12:49:06 437.445
YUBILEINY 27 May 12:53:26 13:02:09 58° 77° (ENE) 13:10:49 435.215
RS-15 27 May 13:06:17 13:18:00 58° 248° (WSW) 13:29:09 29.354- 29.394
EO-79 27 May 13:07:35 13:11:32 40° 262° (W) 13:15:31 145.935-145.965
AO-85 27 May 13:17:05 13:20:26 24° 48° (NE) 13:23:52 145.980
SPROUT 27 May 13:17:07 13:20:38 24° 95° (E) 13:24:07 437.525
LO-87 27 May 13:20:04 13:23:15 31° 288° (WNW) 13:26:26 145.935 - 145.965
NO-84 27 May 13:24:36 13:26:09 12° 2° (N) 13:27:40 435.350 FM
VELOX 1 27 May 13:28:55 13:32:51 31° 97° (E) 13:36:45 145.980
UKube-1 27 May 13:53:37 13:55:48 14° 92° (E) 13:57:57 .
BEESAT 3 27 May 13:54:06 13:57:08 20° 45° (NE) 14:00:07 437.485
NANOSAT C BR1 27 May 13:54:13 13:56:32 14° 268° (W) 13:58:53 145.865
Gurwin Techsat 1B 27 May 13:56:49 14:01:38 36° 68° (ENE) 14:06:28 435.225
O/OREOS (USA 219) 27 May 13:59:50 14:03:58 34° 61° (ENE) 14:08:04 437.305
POLYITAN 1 27 May 14:00:38 14:02:02 11° 270° (W) 14:03:25 437.675
DX 1 27 May 14:01:56 14:05:31 25° 96° (E) 14:09:05 434.975-435.025
DUCHIFAT 1 27 May 14:05:05 14:06:50 12° 269° (W) 14:08:36 145.980
Oscar 19 27 May 14:11:44 14:16:56 82° 74° (ENE) 14:22:10 437.125/150
ESTCUBE 1 27 May 14:13:49 14:17:21 23° 294° (WNW) 14:20:50 437.505/2401.250
BUGSAT 1 27 May 14:17:47 14:21:08 25° 264° (W) 14:24:31 437.445
50 SAT 27 May 14:27:08 14:30:32 84° 102° (ESE) 14:33:55 437.505
YUBILEINY 27 May 14:51:03 14:58:23 31° 277° (W) 15:05:44 435.215
SPROUT 27 May 14:52:49 14:56:30 29° 291° (WNW) 15:00:12 437.525
AO-85 27 May 14:57:09 15:00:50 33° 244° (WSW) 15:04:43 145.980
NO-84 27 May 15:01:59 15:05:01 21° 24° (NNE) 15:07:53 435.350 FM
VELOX 1 27 May 15:05:39 15:09:08 24° 293° (WNW) 15:12:37 145.980
AO-7 27 May 15:10:43 15:18:17 42° 61° (ENE) 15:25:53 .
BEESAT 2 27 May 15:12:53 15:16:47 43° 53° (NE) 15:20:38 435.950
ITAMSAT 1 27 May 15:16:14 15:20:37 29° 66° (ENE) 15:25:01 435.822/435.867
BEESAT 27 May 15:23:36 15:25:24 12° 90° (E) 15:27:12 436.000
RS-15 27 May 15:26:37 15:27:28 10° 269° (W) 15:28:19 29.354- 29.394
UKube-1 27 May 15:27:56 15:32:07 52° 287° (WNW) 15:36:17 .
BEESAT 3 27 May 15:31:05 15:34:54 43° 243° (WSW) 15:38:40 437.485
Gurwin Techsat 1B 27 May 15:37:04 15:41:37 28° 265° (W) 15:46:11 435.225
DX 1 27 May 15:37:56 15:41:40 29° 292° (WNW) 15:45:23 434.975-435.025
O/OREOS (USA 219) 27 May 15:39:38 15:43:09 23° 258° (WSW) 15:46:39 437.305
Oscar 19 27 May 15:55:00 15:56:51 12° 271° (W) 15:58:43 437.125/150
ITUPSAT 1 27 May 16:26:01 16:30:44 52° 100° (E) 16:35:25 437.325
MOZHAYETS 4 27 May 16:32:36 16:36:53 36° 97° (E) 16:41:08
NO-84 27 May 16:39:15 16:42:59 71° 225° (SW) 16:46:22 435.350 FM
BEESAT 2 27 May 16:51:30 16:54:12 17° 249° (WSW) 16:56:53 435.950
ITAMSAT 1 27 May 16:55:15 16:59:57 35° 263° (W) 17:04:41 435.822/435.867
BEESAT 27 May 16:58:52 17:03:40 72° 286° (WNW) 17:08:26 436.000
AO-7 27 May 17:03:03 17:10:55 47° 259° (W) 17:18:51 .
KKS-1 27 May 17:19:37 17:22:17 16° 92° (E) 17:24:56 437.445
CUBESAT XI-V 27 May 17:21:48 17:25:21 21° 93° (E) 17:28:51 437.345
CUTE-I 27 May 17:22:36 17:23:30 10° 56° (NE) 17:24:23 437.470
STARS 27 May 17:48:05 17:50:09 13° 91° (E) 17:52:14 437.465
ITUPSAT 1 27 May 18:04:54 18:08:09 18° 297° (WNW) 18:11:23 437.325
MOZHAYETS 4 27 May 18:10:10 18:13:50 24° 293° (WNW) 18:17:30
LilacSat-2 27 May 18:11:50 18:15:00 25° 69° (ENE) 18:18:11 437.200
DOVE 4 27 May 18:38:48 18:43:25 85° 256° (WSW) 18:47:48 437.250
XW-2D 27 May 18:44:08 18:47:53 59° 74° (ENE) 18:51:40 145.860 - 145.880
XW-2B 27 May 18:52:03 18:55:51 73° 75° (ENE) 18:59:41 145.730 - 145.750
KKS-1 27 May 18:54:49 18:59:06 48° 288° (WNW) 19:03:21 437.445
CUTE-I 27 May 18:57:19 19:02:36 75° 74° (ENE) 19:07:55 437.470
CUBESAT XI-V 27 May 18:58:32 19:02:49 38° 290° (WNW) 19:07:05 437.345
NUDT-PHONESAT 27 May 18:59:31 19:03:12 69° 76° (ENE) 19:06:56 437.300
XW-2F 27 May 19:03:51 19:07:39 82° 258° (WSW) 19:11:30 145.980 - 146.000
XW-2C 27 May 19:05:47 19:09:35 74° 258° (WSW) 19:13:26 145.795 - 145.815
KAITUO 1B 27 May 19:09:32 19:13:18 86° 258° (WSW) 19:17:07 145.475/437.950
XW-2A 27 May 19:14:25 19:15:54 12° 66° (ENE) 19:17:22 145.665 - 145.685
SEEDS 27 May 19:20:50 19:23:15 15° 64° (ENE) 19:25:39 437.485
STARS 27 May 19:22:31 19:26:50 56° 287° (WNW) 19:31:08 437.465
CUBEBUG 2 27 May 19:24:11 19:25:42 12° 62° (ENE) 19:27:13 437.445
HO-68 27 May 19:24:43 19:31:27 45° 65° (ENE) 19:38:12 435.675
PCSat 27 May 19:25:23 19:30:22 39° 111° (ESE) 19:35:24 145.827
LilacSat-2 27 May 19:46:08 19:49:12 23° 265° (W) 19:52:18 437.200
CUTE 1.7 + AOD 2 27 May 20:07:12 20:11:28 73° 76° (ENE) 20:15:46 437.475
AAUSAT CUBESAT 2 27 May 20:15:42 20:19:14 27° 69° (ENE) 20:22:46 437.432
Tancredo 1 27 May 20:20:14 20:23:03 34° 137° (SE) 20:25:53 437.200
AO-73 27 May 20:26:31 20:29:22 18° 65° (ENE) 20:32:17 145.935
ZACube-1 27 May 20:40:23 20:43:57 27° 68° (ENE) 20:47:36 437.345
CUTE-I 27 May 20:40:42 20:43:12 13° 270° (W) 20:45:43 437.470
XW-2A 27 May 20:45:11 20:48:18 35° 262° (W) 20:51:26 145.665 - 145.685
STRAND 1 27 May 20:48:22 20:53:24 53° 100° (E) 20:58:26 437.568
SEEDS 27 May 20:54:22 20:58:29 50° 261° (W) 21:02:39 437.485
CUBEBUG 2 27 May 20:57:37 21:01:44 64° 260° (W) 21:05:58 437.445
ISS 27 May 21:02:45 21:06:00 60° 141° (SE) 21:09:16 437.550
UWE-3 27 May 21:05:15 21:09:26 89° 256° (WSW) 21:13:45 435.000/436.395/437.385
PCSat 27 May 21:09:00 21:13:49 32° 310° (NW) 21:18:41 145.827
HO-68 27 May 21:12:48 21:19:14 36° 263° (W) 21:25:45 435.675
Oscar 11 27 May 21:32:42 21:37:01 76° 76° (ENE) 21:41:23 .
EO-88 27 May 21:44:28 21:46:55 17° 67° (ENE) 21:49:21 145.990 - 145.960
AAUSAT CUBESAT 2 27 May 21:51:09 21:54:37 25° 265° (W) 21:58:06 437.432
SO-50 27 May 21:55:15 21:57:52 15° 109° (ESE) 22:00:29 436.795
Tancredo 1 27 May 21:56:05 21:58:49 29° 335° (NNW) 22:01:34 437.200
DELFI C3 27 May 21:58:15 22:01:56 37° 72° (ENE) 22:05:38 145.870
AO-73 27 May 22:01:17 22:05:16 41° 262° (W) 22:09:22 145.935
ZACube-1 27 May 22:16:39 22:20:10 25° 266° (W) 22:23:47 437.345
STRAND 1 27 May 22:28:30 22:32:10 20° 297° (WNW) 22:35:51 437.568
TIGRISAT 27 May 22:33:01 22:35:30 14° 91° (E) 22:37:59 435.000
ISS 27 May 22:39:58 22:42:43 24° 339° (NNW) 22:45:29 437.550
M-CUBED/EXP-1 PRIME 27 May 22:44:24 22:47:37 53° 291° (WNW) 22:50:47 437.505
PRISM 27 May 22:48:19 22:51:37 24° 95° (E) 22:54:54 437.425
UNISAT 6 27 May 23:03:47 23:07:57 32° 97° (E) 23:12:09 437.425
EO-88 27 May 23:17:06 23:20:21 30° 263° (W) 23:23:39 145.990 - 145.960
SO-50 27 May 23:33:19 23:37:51 61° 306° (NW) 23:42:22 436.795
Tancredo 1 27 May 23:33:47 23:35:19 13° 354° (N) 23:36:51 437.200
DELFI C3 27 May 23:34:18 23:36:50 16° 267° (W) 23:39:23 145.870
ESTCUBE 1 27 May 23:36:01 23:40:04 33° 69° (ENE) 23:44:07 437.505/2401.250
